Vores vejrinfo findes også på:

UK Metoffice

European Weather Network

Weather Underground



Select another period ( hide this area )

Enheder Periode Custom range Directly to
Metrisk Engelsk Begge
Daglig Ugentlig Månedlig Årlig
use both date-selectors for a custom range
previous Dag
With this date

WeatherUnderground graphs for this period ( click here )


Daglig Sum for tirsdag Nov 19 2019
Klokken Temp. ( °C ) Dew pt. ( °C ) Vind fra ( km/h ) fra Vindstød ( km/h ) Lufttryk ( hPa ) Humid.( % ) Rainrate ( cm )
Høj8,5 7,9 16,1 VSV ( 300/611 ) 22,5 1014,1 98 2,00
Gennemsnitlig6,8 6,2 2,5 vindstille #139/245 8,8 1006,1 96 1,40
Lav4,9 4,5 -   0,0 1001,6 91 -
Daglig Tabular details for tirsdag Nov 19 2019
Klokken Temp. ( °C ) Dew pt. ( °C ) Vind fra ( km/h ) fra Vindstød ( km/h ) Lufttryk ( hPa ) Humid.( % ) Rainrate ( cm )
00:00 6,8 6,4   vindstille 8,0 1001,9 97 1,00
00:05 6,8 6,4   vindstille   1001,9 97 1,00
00:10 6,7 6,3   vindstille   1001,9 97 1,30
00:15 6,7 6,3   vindstille 3,2 1001,9 97 1,00
00:20 6,7 6,3   vindstille 3,2 1001,9 97 1,30
00:25 6,7 6,3   vindstille 3,2 1001,9 97 1,50
00:30 6,6 6,2   vindstille   1001,9 97 1,30
00:35 6,6 6,2   vindstille 8,0 1001,9 97 1,50
00:40 6,5 6,1   vindstille 8,0 1001,9 97 1,50
00:45 6,5 6,1   vindstille 3,2 1001,9 97 1,50
00:50 6,4 6,0   vindstille   1001,9 97 1,50
00:55 6,4 6,0   vindstille   1001,9 97 1,80
01:00 6,3 5,9   vindstille   1001,9 97 1,80
01:05 6,3 5,9   vindstille 3,2 1001,9 97 2,00
01:10 6,2 5,8   vindstille 3,2 1001,9 97 1,80
01:15 6,2 5,8   vindstille 3,2 1001,9 97 1,80
01:20 6,2 5,8   vindstille   1001,9 97 1,80
01:25 6,2 5,8   vindstille   1001,6 97 1,50
01:30 6,2 5,8   vindstille   1001,6 97 1,50
01:35 6,2 5,8   vindstille   1001,9 97 1,30
01:40 6,1 5,7   vindstille 4,8 1001,9 97 1,50
01:45 6,1 5,7   vindstille 4,8 1001,9 97 1,30
01:50 6,1 5,7   vindstille 4,8 1001,9 97 1,00
01:55 6,0 5,6   vindstille   1001,9 97 0,80
02:00 5,9 5,5 3,2 Syd   1001,9 97 0,50
02:05 5,9 5,5   vindstille   1001,9 97 0,50
02:10 5,9 5,5   vindstille 6,4 1001,9 97 0,50
02:15 5,9 5,5   vindstille 6,4 1001,9 97 0,50
02:20 5,8 5,4   vindstille   1001,9 97 0,50
02:25 5,8 5,4   vindstille   1002,3 97 0,80
02:30 5,8 5,4   vindstille   1001,9 97 0,80
02:35 5,7 5,3   vindstille   1001,9 97 1,00
02:40 5,7 5,3   vindstille 6,4 1002,3 97 0,80
02:45 5,6 5,2   vindstille 6,4 1002,3 97 0,80
02:50 5,6 5,2   vindstille 6,4 1002,3 97 1,00
02:55 5,6 5,2   vindstille   1002,3 97 1,30
03:00 5,6 5,2   vindstille   1002,3 97 1,30
03:05 5,6 5,2   vindstille   1002,3 97 1,30
03:10 5,5 5,1   vindstille   1002,3 97 1,00
03:15 5,4 5,0   vindstille   1002,3 97 1,00
03:20 5,4 5,0   vindstille   1002,3 97 1,00
03:25 5,4 5,0   vindstille   1002,3 97 0,80
03:30 5,3 4,9   vindstille   1002,3 97 0,80
03:35 5,3 4,9   vindstille   1002,3 97 0,80
03:40 5,3 4,9   vindstille   1002,3 97 1,00
03:45 5,3 4,9   vindstille   1002,3 97 0,80
03:50 5,3 4,9   vindstille   1002,3 97 0,80
03:55 5,3 4,9   vindstille   1002,3 97 0,50
04:00 5,2 4,8   vindstille   1002,3 97 0,50
04:05 5,2 4,8   vindstille   1002,3 97 0,80
04:10 5,2 4,8   vindstille   1002,3 97 0,80
04:15 5,2 4,8   vindstille   1002,3 97 0,80
04:20 5,1 4,7   vindstille   1002,3 97 0,50
04:25 5,1 4,7   vindstille   1002,3 97 0,50
04:30 5,0 4,6   vindstille   1002,3 97 0,50
04:35 5,0 4,6   vindstille   1002,3 97 0,50
04:40 5,0 4,6 1,6 ØSØ   1002,3 97 0,30
04:45 4,9 4,5   vindstille   1002,3 97 0,30
04:50 4,9 4,5   vindstille 6,4 1002,3 97 0,30
04:55 4,9 4,5   vindstille 6,4 1002,3 97 0,30
05:00 4,9 4,5   vindstille 9,7 1002,3 97 -
05:05 4,9 4,5   vindstille 9,7 1002,3 97 -
05:10 4,9 4,5   vindstille 9,7 1002,3 97 -
05:15 4,9 4,5   vindstille   1002,3 97 -
05:20 4,9 4,5   vindstille   1002,3 97 -
05:25 4,9 4,5   vindstille   1002,3 97 -
05:30 4,9 4,5   vindstille   1002,3 97 -
05:35 4,9 4,5   vindstille   1002,3 97 -
05:40 4,9 4,5   vindstille   1002,3 97 -
05:45 4,9 4,5   vindstille   1002,3 97 -
05:50 4,9 4,5   vindstille   1002,3 97 -
05:55 4,9 4,5   vindstille   1002,3 97 -
06:00 4,9 4,5   vindstille   1002,3 97 -
06:05 4,9 4,5   vindstille   1002,6 97 -
06:10 4,9 4,5   vindstille 3,2 1002,6 97 -
06:15 4,9 4,5   vindstille 6,4 1002,6 97 -
06:20 4,9 4,5   vindstille 6,4 1002,6 97 -
06:25 4,9 4,5   vindstille 6,4 1002,6 97 -
06:30 4,9 4,5   vindstille 4,8 1002,6 97 -
06:35 4,9 4,5   vindstille 4,8 1002,6 97 -
06:40 5,0 4,6   vindstille   1002,6 97 -
06:45 5,0 4,6   vindstille   1002,9 97 -
06:50 5,0 4,6   vindstille   1002,9 97 -
06:55 5,0 4,6   vindstille   1002,9 97 -
07:00 5,0 4,6   vindstille   1002,9 97 -
07:05 5,0 4,6   vindstille   1002,9 97 -
07:10 5,0 4,6   vindstille   1002,9 97 -
07:15 5,0 4,6   vindstille   1002,9 97 -
07:20 5,0 4,6   vindstille   1002,9 97 -
07:25 5,0 4,6   vindstille   1003,3 97 -
07:30 5,1 4,7   vindstille   1003,3 97 -
07:35 5,1 4,7   vindstille   1003,3 97 -
07:40 5,1 4,7   vindstille   1003,3 97 -
07:45 5,1 4,7   vindstille   1003,3 97 -
07:50 5,1 4,7   vindstille   1003,3 97 -
07:55 5,1 4,7   vindstille   1003,3 97 -
08:00 5,1 4,7   vindstille   1003,3 97 -
08:05 5,1 4,7   vindstille   1003,3 97 -
08:10 5,1 4,7   vindstille   1003,3 97 -
08:15 5,2 4,8   vindstille   1003,3 97 -
08:20 5,2 4,8   vindstille   1003,6 97 -
08:25 5,1 4,7   vindstille   1003,6 97 0,30
08:30 5,2 4,8   vindstille   1003,6 97 0,30
08:35 5,2 4,8   vindstille   1003,6 97 0,30
08:40 5,2 4,8   vindstille   1003,6 97 0,30
08:45 5,2 4,8   vindstille   1003,9 97 0,30
08:50 5,2 4,8   vindstille   1003,9 97 0,30
08:55 5,2 4,8   vindstille   1003,9 97 0,30
09:00 5,3 4,9   vindstille   1003,9 97 0,50
09:05 5,3 4,9   vindstille   1003,9 97 0,50
09:10 5,3 4,9   vindstille   1004,3 97 0,50
09:15 5,3 4,9   vindstille   1004,3 97 0,50
09:20 5,3 4,9   vindstille   1004,3 97 0,30
09:25 5,3 4,9   vindstille   1004,3 97 0,30
09:30 5,4 5,0   vindstille   1004,3 97 0,30
09:35 5,5 5,1   vindstille   1004,3 97 0,30
09:40 5,6 5,2   vindstille   1004,3 97 0,30
09:45 5,7 5,3   vindstille   1004,3 97 0,30
09:50 5,7 5,3   vindstille   1004,3 97 0,30
09:55 5,8 5,4   vindstille   1004,3 97 0,30
10:00 5,9 5,5   vindstille   1004,6 97 0,30
10:05 5,9 5,5   vindstille   1004,6 97 0,30
10:10 6,1 5,7   vindstille   1004,6 97 0,30
10:15 6,2 5,8   vindstille   1005,0 97 0,30
10:20 6,8 6,4 1,6 Vest   1005,0 97 0,30
10:25 7,4 7,1 4,8 VNV 8,0 1005,0 98 0,30
10:30 7,7 7,4 3,2 VNV 11,3 1005,0 98 0,30
10:35 7,8 7,5 6,4 VSV 12,9 1005,0 98 0,30
10:40 7,9 7,6 4,8 Vest 12,9 1005,0 98 0,30
10:45 7,9 7,6 6,4 SV 20,9 1005,0 98 0,30
10:50 8,0 7,7 8,0 VNV 20,9 1005,0 98 0,30
10:55 8,0 7,7 6,4 VNV 20,9 1005,3 98 -
11:00 8,0 7,7 9,7 Vest 22,5 1005,3 98 -
11:05 8,0 7,7 12,9 VSV 22,5 1005,6 98 -
11:10 8,0 7,7   vindstille 22,5 1005,6 98 0,30
11:15 8,0 7,7 3,2 Vest 20,9 1005,6 98 0,30
11:20 8,0 7,6 3,2 Vest 20,9 1005,6 97 0,30
11:25 8,1 7,8 4,8 Vest 19,3 1006,0 98 0,30
11:30 8,1 7,8   vindstille 19,3 1006,0 98 0,30
11:35 8,1 7,8 3,2 VNV 19,3 1006,0 98 0,30
11:40 8,1 7,8 6,4 VNV 17,7 1006,0 98 0,30
11:45 8,2 7,9 4,8 Vest 17,7 1006,0 98 0,30
11:50 8,2 7,8   vindstille 16,1 1006,0 97 0,30
11:55 8,2 7,8   vindstille 16,1 1006,0 97 0,30
12:00 8,3 7,9 3,2 VNV 16,1 1006,0 97 0,30
12:05 8,3 7,9 6,4 VSV 12,9 1006,3 97 -
12:10 8,3 7,9 6,4 VSV 12,9 1006,3 97 -
12:15 8,3 7,9 3,2 Vest 12,9 1006,3 97 -
12:20 8,3 7,9 4,8 VSV 16,1 1006,3 97 -
12:25 8,3 7,9 6,4 Vest 16,1 1006,7 97 -
12:30 8,3 7,9 11,3 SV 16,1 1006,7 97 -
12:35 8,3 7,9 3,2 VSV 14,5 1006,7 97 -
12:40 8,3 7,9 3,2 VSV 16,1 1006,7 97 -
12:45 8,3 7,7   vindstille 16,1 1007,0 96 -
12:50 8,4 7,8 3,2 Vest 12,9 1007,0 96 -
12:55 8,4 7,8 6,4 VSV 12,9 1007,0 96 -
13:00 8,4 7,8 3,2 SV 12,9 1007,3 96 -
13:05 8,5 7,9 4,8 VSV 12,9 1007,3 96 -
13:10 8,5 7,7 8,0 SV 12,9 1007,3 95 -
13:15 8,5 7,7 9,7 SV 14,5 1007,3 95 -
13:20 8,5 7,7 8,0 VSV 14,5 1007,3 95 -
13:25 8,5 7,7 4,8 SV 14,5 1007,7 95 -
13:30 8,4 7,6 9,7 Vest 17,7 1007,7 95 -
13:35 8,4 7,6 3,2 Vest 17,7 1007,7 95 -
13:40 8,3 7,5 3,2 Vest 17,7 1008,0 95 -
13:45 8,3 7,5 1,6 Vest 17,7 1008,0 95 -
13:50 8,3 7,5 1,6 VNV 19,3 1008,0 95 -
13:55 8,2 7,4 4,8 VSV 20,9 1008,0 95 -
14:00 8,2 7,4 6,4 Vest 20,9 1008,0 95 -
14:05 8,2 7,4   vindstille 20,9 1008,0 95 -
14:10 8,2 7,4 1,6 VSV 14,5 1008,4 95 -
14:15 8,2 7,4 3,2 VSV 12,9 1008,4 95 -
14:20 8,3 7,7 4,8 SV 11,3 1008,4 96 -
14:25 8,3 7,5 3,2 Vest 11,3 1008,4 95 -
14:30 8,3 7,5 6,4 VSV 16,1 1008,7 95 -
14:35 8,3 7,5 6,4 VSV 19,3 1008,7 95 -
14:40 8,4 7,5 12,9 VSV 19,3 1008,7 94 -
14:45 8,4 7,5 4,8 VSV 19,3 1009,0 94 -
14:50 8,4 7,3 3,2 VSV 14,5 1009,0 93 -
14:55 8,4 7,3 11,3 VSV 14,5 1009,0 93 -
15:00 8,4 7,3 14,5 VSV 16,1 1009,4 93 -
15:05 8,3 7,2 9,7 VSV 17,7 1009,4 93 -
15:10 8,2 7,1 4,8 SV 17,7 1009,4 93 -
15:15 8,3 7,2 4,8 VSV 17,7 1009,4 93 -
15:20 8,2 7,1 3,2 VSV 14,5 1009,4 93 -
15:25 8,3 7,2 8,0 SV 14,5 1009,7 93 -
15:30 8,3 7,2 4,8 Vest 17,7 1009,7 93 -
15:35 8,3 7,4 4,8 VSV 17,7 1010,0 94 -
15:40 8,3 7,4 3,2 SV 17,7 1010,0 94 -
15:45 8,2 7,3 8,0 VSV 14,5 1010,0 94 -
15:50 8,2 7,3 6,4 VSV 16,1 1010,0 94 -
15:55 8,2 7,3 4,8 VSV 16,1 1010,0 94 -
16:00 8,2 7,3 8,0 VSV 16,1 1010,4 94 -
16:05 8,2 7,3 6,4 VSV 16,1 1010,4 94 -
16:10 8,2 7,3 8,0 VSV 16,1 1010,4 94 -
16:15 8,1 7,2 4,8 VSV 16,1 1010,7 94 -
16:20 8,1 7,2 4,8 VSV 16,1 1010,7 94 -
16:25 8,1 7,2 16,1 VSV 16,1 1011,1 94 0,30
16:30 8,1 7,2 8,0 VSV 17,7 1010,7 94 0,30
16:35 8,1 7,2 6,4 Vest 17,7 1011,1 94 0,30
16:40 8,1 7,2 6,4 SV 19,3 1011,1 94 0,30
16:45 8,1 7,2   vindstille 19,3 1011,1 94 0,30
16:50 8,1 7,0   vindstille 20,9 1011,1 93 0,30
16:55 8,0 6,9 9,7 VSV 20,9 1011,4 93 0,30
17:00 8,0 6,9   vindstille 19,3 1011,4 93 0,30
17:05 8,1 7,0 6,4 SV 20,9 1011,4 93 0,30
17:10 8,1 7,0 3,2 Vest 20,9 1011,4 93 0,30
17:15 8,1 7,0   vindstille 20,9 1011,4 93 0,30
17:20 8,1 7,0 11,3 VSV 19,3 1011,4 93 -
17:25 8,0 6,9 3,2 Vest 19,3 1011,4 93 -
17:30 8,0 6,9   vindstille 19,3 1011,7 93 -
17:35 8,0 7,1 4,8 VSV 17,7 1011,7 94 -
17:40 8,0 6,9 4,8 VNV 19,3 1011,7 93 -
17:45 8,0 6,9 3,2 Vest 19,3 1011,7 93 -
17:50 7,9 6,8 12,9 VSV 19,3 1011,7 93 -
17:55 8,0 6,9   vindstille 12,9 1011,7 93 -
18:00 7,9 6,8 1,6 Vest 14,5 1012,1 93 -
18:05 7,9 6,8 9,7 Vest 19,3 1012,1 93 -
18:10 7,9 6,8 4,8 Vest 19,3 1012,1 93 -
18:15 8,0 6,9 12,9 VSV 19,3 1012,4 93 -
18:20 8,0 6,8 1,6 VSV 16,1 1012,4 92 -
18:25 8,1 7,0 4,8 VSV 14,5 1012,4 93 -
18:30 8,1 6,9 6,4 VSV 16,1 1012,8 92 -
18:35 8,1 6,9 9,7 Vest 16,1 1012,8 92 -
18:40 8,1 6,9 1,6 Vest 16,1 1012,8 92 -
18:45 8,1 6,7 14,5 Vest 14,5 1012,8 91 -
18:50 8,2 6,8 8,0 SV 12,9 1012,8 91 -
18:55 8,1 6,7 4,8 Vest 17,7 1012,8 91 -
19:00 8,1 6,7   vindstille 17,7 1012,8 91 -
19:05 8,1 6,7 1,6 Vest 12,9 1013,1 91 -
19:10 8,2 6,8 4,8 Vest 9,7 1013,1 91 -
19:15 8,3 6,9 1,6 VSV 11,3 1013,1 91 -
19:20 8,3 6,9 1,6 VNV 12,9 1013,1 91 -
19:25 8,2 7,0 3,2 Vest 17,7 1013,4 92 -
19:30 8,1 6,9 1,6 VSV 17,7 1013,4 92 -
19:35 8,1 6,9   vindstille 17,7 1013,4 92 -
19:40 8,1 6,9 3,2 VSV 12,9 1013,4 92 -
19:45 8,1 6,9 4,8 Vest 12,9 1013,4 92 -
19:50 8,1 6,7   vindstille 12,9 1013,8 91 -
19:55 8,1 6,7 1,6 Vest 9,7 1013,8 91 -
20:00 8,2 6,8 1,6 VNV 11,3 1013,8 91 -
20:05 8,1 6,7   vindstille 19,3 1014,1 91 -
20:10 8,1 6,7 14,5 Vest 19,3 1014,1 91 -
20:15 8,1 6,7 6,4 Vest 17,7 1014,1 91 -
20:20 8,1 6,7   vindstille 20,9 1014,1 91 -
Daglig Sum for tirsdag Nov 19 2019
Klokken Temp. ( °C ) Dew pt. ( °C ) Vind fra ( km/h ) fra Vindstød ( km/h ) Lufttryk ( hPa ) Humid.( % ) Rainrate ( cm )
Høj8,5 7,9 16,1 VSV ( 300/611 ) 22,5 1014,1 98 2,00
Gennemsnitlig6,8 6,2 2,5 vindstille #139/245 8,8 1006,1 96 1,40
Lav4,9 4,5 -   0,0 1001,6 91 -
Daglig Tabular details for tirsdag Nov 19 2019
Klokken Temp. ( °C ) Dew pt. ( °C ) Vind fra ( km/h ) fra Vindstød ( km/h ) Lufttryk ( hPa ) Humid.( % ) Rainrate ( cm )
00:00 6,8 6,4   vindstille 8,0 1001,9 97 1,00
00:05 6,8 6,4   vindstille   1001,9 97 1,00
00:10 6,7 6,3   vindstille   1001,9 97 1,30
00:15 6,7 6,3   vindstille 3,2 1001,9 97 1,00
00:20 6,7 6,3   vindstille 3,2 1001,9 97 1,30
00:25 6,7 6,3   vindstille 3,2 1001,9 97 1,50
00:30 6,6 6,2   vindstille   1001,9 97 1,30
00:35 6,6 6,2   vindstille 8,0 1001,9 97 1,50
00:40 6,5 6,1   vindstille 8,0 1001,9 97 1,50
00:45 6,5 6,1   vindstille 3,2 1001,9 97 1,50
00:50 6,4 6,0   vindstille   1001,9 97 1,50
00:55 6,4 6,0   vindstille   1001,9 97 1,80
01:00 6,3 5,9   vindstille   1001,9 97 1,80
01:05 6,3 5,9   vindstille 3,2 1001,9 97 2,00
01:10 6,2 5,8   vindstille 3,2 1001,9 97 1,80
01:15 6,2 5,8   vindstille 3,2 1001,9 97 1,80
01:20 6,2 5,8   vindstille   1001,9 97 1,80
01:25 6,2 5,8   vindstille   1001,6 97 1,50
01:30 6,2 5,8   vindstille   1001,6 97 1,50
01:35 6,2 5,8   vindstille   1001,9 97 1,30
01:40 6,1 5,7   vindstille 4,8 1001,9 97 1,50
01:45 6,1 5,7   vindstille 4,8 1001,9 97 1,30
01:50 6,1 5,7   vindstille 4,8 1001,9 97 1,00
01:55 6,0 5,6   vindstille   1001,9 97 0,80
02:00 5,9 5,5 3,2 Syd   1001,9 97 0,50
02:05 5,9 5,5   vindstille   1001,9 97 0,50
02:10 5,9 5,5   vindstille 6,4 1001,9 97 0,50
02:15 5,9 5,5   vindstille 6,4 1001,9 97 0,50
02:20 5,8 5,4   vindstille   1001,9 97 0,50
02:25 5,8 5,4   vindstille   1002,3 97 0,80
02:30 5,8 5,4   vindstille   1001,9 97 0,80
02:35 5,7 5,3   vindstille   1001,9 97 1,00
02:40 5,7 5,3   vindstille 6,4 1002,3 97 0,80
02:45 5,6 5,2   vindstille 6,4 1002,3 97 0,80
02:50 5,6 5,2   vindstille 6,4 1002,3 97 1,00
02:55 5,6 5,2   vindstille   1002,3 97 1,30
03:00 5,6 5,2   vindstille   1002,3 97 1,30
03:05 5,6 5,2   vindstille   1002,3 97 1,30
03:10 5,5 5,1   vindstille   1002,3 97 1,00
03:15 5,4 5,0   vindstille   1002,3 97 1,00
03:20 5,4 5,0   vindstille   1002,3 97 1,00
03:25 5,4 5,0   vindstille   1002,3 97 0,80
03:30 5,3 4,9   vindstille   1002,3 97 0,80
03:35 5,3 4,9   vindstille   1002,3 97 0,80
03:40 5,3 4,9   vindstille   1002,3 97 1,00
03:45 5,3 4,9   vindstille   1002,3 97 0,80
03:50 5,3 4,9   vindstille   1002,3 97 0,80
03:55 5,3 4,9   vindstille   1002,3 97 0,50
04:00 5,2 4,8   vindstille   1002,3 97 0,50
04:05 5,2 4,8   vindstille   1002,3 97 0,80
04:10 5,2 4,8   vindstille   1002,3 97 0,80
04:15 5,2 4,8   vindstille   1002,3 97 0,80
04:20 5,1 4,7   vindstille   1002,3 97 0,50
04:25 5,1 4,7   vindstille   1002,3 97 0,50
04:30 5,0 4,6   vindstille   1002,3 97 0,50
04:35 5,0 4,6   vindstille   1002,3 97 0,50
04:40 5,0 4,6 1,6 ØSØ   1002,3 97 0,30
04:45 4,9 4,5   vindstille   1002,3 97 0,30
04:50 4,9 4,5   vindstille 6,4 1002,3 97 0,30
04:55 4,9 4,5   vindstille 6,4 1002,3 97 0,30
05:00 4,9 4,5   vindstille 9,7 1002,3 97 -
05:05 4,9 4,5   vindstille 9,7 1002,3 97 -
05:10 4,9 4,5   vindstille 9,7 1002,3 97 -
05:15 4,9 4,5   vindstille   1002,3 97 -
05:20 4,9 4,5   vindstille   1002,3 97 -
05:25 4,9 4,5   vindstille   1002,3 97 -
05:30 4,9 4,5   vindstille   1002,3 97 -
05:35 4,9 4,5   vindstille   1002,3 97 -
05:40 4,9 4,5   vindstille   1002,3 97 -
05:45 4,9 4,5   vindstille   1002,3 97 -
05:50 4,9 4,5   vindstille   1002,3 97 -
05:55 4,9 4,5   vindstille   1002,3 97 -
06:00 4,9 4,5   vindstille   1002,3 97 -
06:05 4,9 4,5   vindstille   1002,6 97 -
06:10 4,9 4,5   vindstille 3,2 1002,6 97 -
06:15 4,9 4,5   vindstille 6,4 1002,6 97 -
06:20 4,9 4,5   vindstille 6,4 1002,6 97 -
06:25 4,9 4,5   vindstille 6,4 1002,6 97 -
06:30 4,9 4,5   vindstille 4,8 1002,6 97 -
06:35 4,9 4,5   vindstille 4,8 1002,6 97 -
06:40 5,0 4,6   vindstille   1002,6 97 -
06:45 5,0 4,6   vindstille   1002,9 97 -
06:50 5,0 4,6   vindstille   1002,9 97 -
06:55 5,0 4,6   vindstille   1002,9 97 -
07:00 5,0 4,6   vindstille   1002,9 97 -
07:05 5,0 4,6   vindstille   1002,9 97 -
07:10 5,0 4,6   vindstille   1002,9 97 -
07:15 5,0 4,6   vindstille   1002,9 97 -
07:20 5,0 4,6   vindstille   1002,9 97 -
07:25 5,0 4,6   vindstille   1003,3 97 -
07:30 5,1 4,7   vindstille   1003,3 97 -
07:35 5,1 4,7   vindstille   1003,3 97 -
07:40 5,1 4,7   vindstille   1003,3 97 -
07:45 5,1 4,7   vindstille   1003,3 97 -
07:50 5,1 4,7   vindstille   1003,3 97 -
07:55 5,1 4,7   vindstille   1003,3 97 -
08:00 5,1 4,7   vindstille   1003,3 97 -
08:05 5,1 4,7   vindstille   1003,3 97 -
08:10 5,1 4,7   vindstille   1003,3 97 -
08:15 5,2 4,8   vindstille   1003,3 97 -
08:20 5,2 4,8   vindstille   1003,6 97 -
08:25 5,1 4,7   vindstille   1003,6 97 0,30
08:30 5,2 4,8   vindstille   1003,6 97 0,30
08:35 5,2 4,8   vindstille   1003,6 97 0,30
08:40 5,2 4,8   vindstille   1003,6 97 0,30
08:45 5,2 4,8   vindstille   1003,9 97 0,30
08:50 5,2 4,8   vindstille   1003,9 97 0,30
08:55 5,2 4,8   vindstille   1003,9 97 0,30
09:00 5,3 4,9   vindstille   1003,9 97 0,50
09:05 5,3 4,9   vindstille   1003,9 97 0,50
09:10 5,3 4,9   vindstille   1004,3 97 0,50
09:15 5,3 4,9   vindstille   1004,3 97 0,50
09:20 5,3 4,9   vindstille   1004,3 97 0,30
09:25 5,3 4,9   vindstille   1004,3 97 0,30
09:30 5,4 5,0   vindstille   1004,3 97 0,30
09:35 5,5 5,1   vindstille   1004,3 97 0,30
09:40 5,6 5,2   vindstille   1004,3 97 0,30
09:45 5,7 5,3   vindstille   1004,3 97 0,30
09:50 5,7 5,3   vindstille   1004,3 97 0,30
09:55 5,8 5,4   vindstille   1004,3 97 0,30
10:00 5,9 5,5   vindstille   1004,6 97 0,30
10:05 5,9 5,5   vindstille   1004,6 97 0,30
10:10 6,1 5,7   vindstille   1004,6 97 0,30
10:15 6,2 5,8   vindstille   1005,0 97 0,30
10:20 6,8 6,4 1,6 Vest   1005,0 97 0,30
10:25 7,4 7,1 4,8 VNV 8,0 1005,0 98 0,30
10:30 7,7 7,4 3,2 VNV 11,3 1005,0 98 0,30
10:35 7,8 7,5 6,4 VSV 12,9 1005,0 98 0,30
10:40 7,9 7,6 4,8 Vest 12,9 1005,0 98 0,30
10:45 7,9 7,6 6,4 SV 20,9 1005,0 98 0,30
10:50 8,0 7,7 8,0 VNV 20,9 1005,0 98 0,30
10:55 8,0 7,7 6,4 VNV 20,9 1005,3 98 -
11:00 8,0 7,7 9,7 Vest 22,5 1005,3 98 -
11:05 8,0 7,7 12,9 VSV 22,5 1005,6 98 -
11:10 8,0 7,7   vindstille 22,5 1005,6 98 0,30
11:15 8,0 7,7 3,2 Vest 20,9 1005,6 98 0,30
11:20 8,0 7,6 3,2 Vest 20,9 1005,6 97 0,30
11:25 8,1 7,8 4,8 Vest 19,3 1006,0 98 0,30
11:30 8,1 7,8   vindstille 19,3 1006,0 98 0,30
11:35 8,1 7,8 3,2 VNV 19,3 1006,0 98 0,30
11:40 8,1 7,8 6,4 VNV 17,7 1006,0 98 0,30
11:45 8,2 7,9 4,8 Vest 17,7 1006,0 98 0,30
11:50 8,2 7,8   vindstille 16,1 1006,0 97 0,30
11:55 8,2 7,8   vindstille 16,1 1006,0 97 0,30
12:00 8,3 7,9 3,2 VNV 16,1 1006,0 97 0,30
12:05 8,3 7,9 6,4 VSV 12,9 1006,3 97 -
12:10 8,3 7,9 6,4 VSV 12,9 1006,3 97 -
12:15 8,3 7,9 3,2 Vest 12,9 1006,3 97 -
12:20 8,3 7,9 4,8 VSV 16,1 1006,3 97 -
12:25 8,3 7,9 6,4 Vest 16,1 1006,7 97 -
12:30 8,3 7,9 11,3 SV 16,1 1006,7 97 -
12:35 8,3 7,9 3,2 VSV 14,5 1006,7 97 -
12:40 8,3 7,9 3,2 VSV 16,1 1006,7 97 -
12:45 8,3 7,7   vindstille 16,1 1007,0 96 -
12:50 8,4 7,8 3,2 Vest 12,9 1007,0 96 -
12:55 8,4 7,8 6,4 VSV 12,9 1007,0 96 -
13:00 8,4 7,8 3,2 SV 12,9 1007,3 96 -
13:05 8,5 7,9 4,8 VSV 12,9 1007,3 96 -
13:10 8,5 7,7 8,0 SV 12,9 1007,3 95 -
13:15 8,5 7,7 9,7 SV 14,5 1007,3 95 -
13:20 8,5 7,7 8,0 VSV 14,5 1007,3 95 -
13:25 8,5 7,7 4,8 SV 14,5 1007,7 95 -
13:30 8,4 7,6 9,7 Vest 17,7 1007,7 95 -
13:35 8,4 7,6 3,2 Vest 17,7 1007,7 95 -
13:40 8,3 7,5 3,2 Vest 17,7 1008,0 95 -
13:45 8,3 7,5 1,6 Vest 17,7 1008,0 95 -
13:50 8,3 7,5 1,6 VNV 19,3 1008,0 95 -
13:55 8,2 7,4 4,8 VSV 20,9 1008,0 95 -
14:00 8,2 7,4 6,4 Vest 20,9 1008,0 95 -
14:05 8,2 7,4   vindstille 20,9 1008,0 95 -
14:10 8,2 7,4 1,6 VSV 14,5 1008,4 95 -
14:15 8,2 7,4 3,2 VSV 12,9 1008,4 95 -
14:20 8,3 7,7 4,8 SV 11,3 1008,4 96 -
14:25 8,3 7,5 3,2 Vest 11,3 1008,4 95 -
14:30 8,3 7,5 6,4 VSV 16,1 1008,7 95 -
14:35 8,3 7,5 6,4 VSV 19,3 1008,7 95 -
14:40 8,4 7,5 12,9 VSV 19,3 1008,7 94 -
14:45 8,4 7,5 4,8 VSV 19,3 1009,0 94 -
14:50 8,4 7,3 3,2 VSV 14,5 1009,0 93 -
14:55 8,4 7,3 11,3 VSV 14,5 1009,0 93 -
15:00 8,4 7,3 14,5 VSV 16,1 1009,4 93 -
15:05 8,3 7,2 9,7 VSV 17,7 1009,4 93 -
15:10 8,2 7,1 4,8 SV 17,7 1009,4 93 -
15:15 8,3 7,2 4,8 VSV 17,7 1009,4 93 -
15:20 8,2 7,1 3,2 VSV 14,5 1009,4 93 -
15:25 8,3 7,2 8,0 SV 14,5 1009,7 93 -
15:30 8,3 7,2 4,8 Vest 17,7 1009,7 93 -
15:35 8,3 7,4 4,8 VSV 17,7 1010,0 94 -
15:40 8,3 7,4 3,2 SV 17,7 1010,0 94 -
15:45 8,2 7,3 8,0 VSV 14,5 1010,0 94 -
15:50 8,2 7,3 6,4 VSV 16,1 1010,0 94 -
15:55 8,2 7,3 4,8 VSV 16,1 1010,0 94 -
16:00 8,2 7,3 8,0 VSV 16,1 1010,4 94 -
16:05 8,2 7,3 6,4 VSV 16,1 1010,4 94 -
16:10 8,2 7,3 8,0 VSV 16,1 1010,4 94 -
16:15 8,1 7,2 4,8 VSV 16,1 1010,7 94 -
16:20 8,1 7,2 4,8 VSV 16,1 1010,7 94 -
16:25 8,1 7,2 16,1 VSV 16,1 1011,1 94 0,30
16:30 8,1 7,2 8,0 VSV 17,7 1010,7 94 0,30
16:35 8,1 7,2 6,4 Vest 17,7 1011,1 94 0,30
16:40 8,1 7,2 6,4 SV 19,3 1011,1 94 0,30
16:45 8,1 7,2   vindstille 19,3 1011,1 94 0,30
16:50 8,1 7,0   vindstille 20,9 1011,1 93 0,30
16:55 8,0 6,9 9,7 VSV 20,9 1011,4 93 0,30
17:00 8,0 6,9   vindstille 19,3 1011,4 93 0,30
17:05 8,1 7,0 6,4 SV 20,9 1011,4 93 0,30
17:10 8,1 7,0 3,2 Vest 20,9 1011,4 93 0,30
17:15 8,1 7,0   vindstille 20,9 1011,4 93 0,30
17:20 8,1 7,0 11,3 VSV 19,3 1011,4 93 -
17:25 8,0 6,9 3,2 Vest 19,3 1011,4 93 -
17:30 8,0 6,9   vindstille 19,3 1011,7 93 -
17:35 8,0 7,1 4,8 VSV 17,7 1011,7 94 -
17:40 8,0 6,9 4,8 VNV 19,3 1011,7 93 -
17:45 8,0 6,9 3,2 Vest 19,3 1011,7 93 -
17:50 7,9 6,8 12,9 VSV 19,3 1011,7 93 -
17:55 8,0 6,9   vindstille 12,9 1011,7 93 -
18:00 7,9 6,8 1,6 Vest 14,5 1012,1 93 -
18:05 7,9 6,8 9,7 Vest 19,3 1012,1 93 -
18:10 7,9 6,8 4,8 Vest 19,3 1012,1 93 -
18:15 8,0 6,9 12,9 VSV 19,3 1012,4 93 -
18:20 8,0 6,8 1,6 VSV 16,1 1012,4 92 -
18:25 8,1 7,0 4,8 VSV 14,5 1012,4 93 -
18:30 8,1 6,9 6,4 VSV 16,1 1012,8 92 -
18:35 8,1 6,9 9,7 Vest 16,1 1012,8 92 -
18:40 8,1 6,9 1,6 Vest 16,1 1012,8 92 -
18:45 8,1 6,7 14,5 Vest 14,5 1012,8 91 -
18:50 8,2 6,8 8,0 SV 12,9 1012,8 91 -
18:55 8,1 6,7 4,8 Vest 17,7 1012,8 91 -
19:00 8,1 6,7   vindstille 17,7 1012,8 91 -
19:05 8,1 6,7 1,6 Vest 12,9 1013,1 91 -
19:10 8,2 6,8 4,8 Vest 9,7 1013,1 91 -
19:15 8,3 6,9 1,6 VSV 11,3 1013,1 91 -
19:20 8,3 6,9 1,6 VNV 12,9 1013,1 91 -
19:25 8,2 7,0 3,2 Vest 17,7 1013,4 92 -
19:30 8,1 6,9 1,6 VSV 17,7 1013,4 92 -
19:35 8,1 6,9   vindstille 17,7 1013,4 92 -
19:40 8,1 6,9 3,2 VSV 12,9 1013,4 92 -
19:45 8,1 6,9 4,8 Vest 12,9 1013,4 92 -
19:50 8,1 6,7   vindstille 12,9 1013,8 91 -
19:55 8,1 6,7 1,6 Vest 9,7 1013,8 91 -
20:00 8,2 6,8 1,6 VNV 11,3 1013,8 91 -
20:05 8,1 6,7   vindstille 19,3 1014,1 91 -
20:10 8,1 6,7 14,5 Vest 19,3 1014,1 91 -
20:15 8,1 6,7 6,4 Vest 17,7 1014,1 91 -
20:20 8,1 6,7   vindstille 20,9 1014,1 91 -

Download your copy of this data-set  here

Our weather-data as stored at Weather Underground. Original script by Jim McMurry. Adapted for the template by Leuven-Template.eu

Der anvendes følgende:

Vejrstation
Davis VP2

Vejrprogram
Meteohub

Server
RaspberryPI 3 model B

Davis VP2

Meteohub

RaspberryPI 3 model B